#timestamp,LO_Frequency,Hit,StdDev 
1456873215.0,286046992.2,N
1456873215.9,286046992.2,N
1456873235.8,286046993.0,N
1456873255.6,286046993.2,N
1456873275.4,286046992.5,N
1456873295.3,286046991.0,N
1456873315.1,286046990.7,Y
1456873335.8,286046995.2,P
1456873355.7,286046998.0,P
1456873375.5,286046998.9,N
1456873395.3,286046998.5,N
1456873415.2,286046994.9,N
1456873435.9,286046995.9,N
1456873455.7,286046993.2,Y
1456873475.6,286046991.9,P
1456873495.4,286046993.0,P
1456873515.2,286046994.3,N
1456873535.1,286046994.7,Y
1456873536.0,286046994.7,P
1456873555.8,286047002.4,P
1456873575.6,286047000.4,N
1456873595.5,286046998.4,N
1456873615.3,286046998.1,N
1456873635.1,286046997.0,N
1456873655.9,286046999.6,N
1456873675.7,286046997.3,N
1456873695.5,286046998.3,N
1456873715.4,286047003.7,N
1456873735.2,286047003.3,N
1456873755.0,286047004.9,N
1456873755.9,286047004.9,N
1456873775.8,286047004.6,N
1456873795.6,286047004.6,N
1456873815.4,286047003.0,N
1456873835.2,286047004.6,N
1456873855.1,286047007.1,N
1456873856.0,286047007.1,N
1456873875.8,286047008.2,N
1456873895.6,286047007.7,N
1456873915.5,286047014.9,Y
1456873935.3,286047012.7,P
1456873955.1,286047013.8,N
1456873975.9,286047011.3,N
1456873995.7,286047012.7,N
1456874015.5,286047013.2,Y
1456874035.4,286047007.3,P
1456874055.2,286047007.3,P
1456874075.0,286047003.5,N
1456874075.9,286047003.5,N
1456874095.8,286047001.8,N
1456874115.6,286047002.0,N
1456874135.4,286047002.3,N
1456874155.3,286047001.8,N
1456874175.1,286047000.9,N
1456874195.8,286047000.2,N
1456874215.7,286047000.2,N
1456874235.5,286046998.7,N
1456874255.3,286046997.8,N
1456874275.2,286046996.0,N
1456874295.9,286046994.4,N
1456874315.7,286046996.8,N
1456874335.6,286046998.9,N
1456874355.4,286046999.3,N
1456874375.2,286046996.9,N
1456874395.0,286046997.6,N
1456874396.0,286046997.6,N
1456874415.8,286046995.5,N
1456874435.6,286046995.6,N
1456874455.4,286046996.0,N
1456874475.3,286046991.7,N
1456874495.1,286046993.7,N
1456874515.8,286046994.0,N
1456874535.7,286046993.4,N
1456874555.5,286046992.0,N
1456874575.3,286046991.9,N
1456874595.2,286046994.1,N
1456874615.9,286046993.8,N
1456874635.7,286046995.7,N
1456874655.6,286046995.2,N
1456874675.4,286046995.9,N
1456874695.2,286046994.1,N
1456874715.0,286046994.6,N
1456874716.0,286046994.6,N
1456874735.8,286046993.6,N
1456874755.6,286046996.1,N
1456874775.4,286046997.1,N
1456874795.3,286046996.0,N
1456874815.1,286046995.8,N
1456874835.8,286046996.6,N
1456874855.7,286046996.6,N
1456874875.5,286046996.1,N
1456874895.3,286046993.1,Y
1456874915.2,286046999.1,P
1456874935.0,286047002.5,N
1456874936.0,286047002.5,N
1456874955.8,286046998.1,N
1456874975.6,286046996.5,N
1456874995.4,286046998.0,N
1456875015.3,286046999.4,N
1456875035.1,286046998.5,N
1456875055.8,286046998.1,N
1456875075.7,286046999.8,N
1456875095.5,286047000.2,N
1456875115.3,286047001.6,N
1456875135.2,286047002.0,N
1456875155.9,286047002.3,N
1456875175.7,286046996.5,N
1456875195.6,286046997.2,N
1456875215.4,286046995.5,N
1456875235.2,286046994.3,N
1456875255.0,286046993.4,N
1456875256.0,286046993.4,N
1456875275.8,286046992.2,N
1456875295.6,286046996.4,N
1456875315.4,286046995.6,N
1456875335.3,286046996.0,N
1456875355.1,286046996.2,N
1456875375.8,286046993.0,N
1456875395.7,286046995.1,N
1456875415.5,286047001.1,N
1456875435.3,286047000.9,N
1456875455.2,286047004.2,N
1456875475.9,286046999.7,N
1456875495.7,286046998.1,N
1456875515.6,286047001.1,N
1456875535.4,286046998.9,N
1456875555.2,286046999.9,N
1456875575.0,286047000.7,N
1456875576.0,286047000.7,N
1456875595.8,286046999.4,N
1456875615.6,286047000.7,N
1456875635.4,286047002.6,N
1456875655.3,286047002.8,N
1456875675.1,286047002.7,N
1456875695.8,286047002.4,N
1456875715.7,286047006.0,N
1456875735.5,286047006.0,N
1456875755.3,286047004.5,N
1456875775.2,286047007.6,N
1456875795.9,286047007.5,N
1456875815.7,286047010.0,N
1456875835.6,286047008.1,N
1456875855.4,286047011.2,N
1456875875.2,286047011.5,N
1456875895.1,286047015.5,Y
1456875896.0,286047015.5,P
1456875915.8,286047011.0,N
1456875935.6,286047017.0,P
1456875955.5,286047017.0,N
1456875975.3,286047014.6,N
1456875995.1,286047017.0,Y
1456876015.9,286047002.2,P
1456876035.7,286047000.2,N
1456876055.5,286047001.9,N
1456876075.4,286047000.0,N
1456876095.2,286047003.9,N
1456876115.0,286047001.6,N
1456876115.9,286047001.6,N
1456876135.8,286047001.6,N
1456876155.6,286047000.2,N
1456876175.4,286046999.7,N
1456876195.3,286047006.0,N
1456876215.1,286047003.5,N
1456876216.0,286047003.5,N
1456876235.8,286047006.8,N
1456876255.6,286047008.5,N
1456876275.5,286047006.1,N
1456876295.3,286047007.1,N
1456876315.1,286047009.2,N
1456876335.9,286047012.2,Y
1456876355.7,286047009.2,P
1456876375.5,286047010.4,P
1456876395.4,286047006.1,N
1456876415.2,286047008.2,Y
1456876435.0,286047004.3,P
1456876435.9,286047004.3,N
1456876455.8,286047001.4,N
1456876475.6,286046999.7,N
1456876495.4,286047001.4,N
1456876515.3,286047001.5,N
1456876535.1,286047000.6,N
1456876555.8,286046995.1,N
1456876575.7,286046998.9,N
1456876595.5,286046999.7,N
1456876615.3,286046999.6,N
1456876635.2,286046995.1,N
1456876655.9,286046996.5,N
1456876675.7,286046998.6,N
1456876695.5,286046997.3,N
1456876715.4,286046995.2,N
1456876735.2,286046995.2,N
1456876755.0,286046995.6,N
1456876755.9,286046995.6,N
1456876775.8,286046995.7,N
1456876795.6,286046992.2,N
